Location: Smithsonian NASM Public Observatory
(38.8879°N, 77.0185°W)
Time: 11:22:44
(UTC-04:00)

Daily predictions for brighter satellites

Satellite Brightness Start Highest point End
(mag) Time Altitude Azimuth Time Altitude Azimuth Time Altitude Azimuth
IDEFIX/ARIANE 42P 3.5 19:12:55 10° S 19:18:02 56° W 19:23:12 10° NNW
Meteor 1-24 Rocket 3.7 19:12:46 10° N 19:18:22 67° E 19:23:44 10° SSE
GPS 2-04 Rocket1 4.1 19:17:53 10° SSW 19:20:28 19° SSE 19:23:06 10° ESE
Cosmos 1624 Rocket 4.1 19:16:48 10° NNW 19:22:02 88° WSW 19:27:13 10° SSE
CZ-2C R/B 4.0 19:20:17 10° SSW 19:24:56 40° W 19:29:29 10° NNW
Meteor 2-5 Rocket 4.5 19:20:25 10° NNW 19:25:55 58° W 19:31:20 10° S
NOAA 12 4.3 19:20:53 10° SE 19:25:55 49° ENE 19:31:00 10° N
Aureole 2 Rocket 3.3 19:24:26 10° SSW 19:28:48 74° WNW 19:33:06 10° NNE
SL-8 R/B 4.3 19:25:02 10° SSW 19:29:27 38° SE 19:33:53 10° ENE
ATLAS CENTAUR R/B 3.4 19:27:12 10° SSW 19:31:38 79° SE 19:45:36 10° NE
Cosmos 2333 Rocket 4.4 19:30:04 10° WSW 19:35:00 28° WNW 19:39:57 10° N
SeaSat 1 4.2 19:35:13 11° E 19:35:24 11° ESE 19:36:32 10° ESE
SAR-Lupe-1 4.0 19:31:58 10° SSE 19:35:29 66° ENE 19:39:02 10° N
Okean 3 Rocket 3.9 19:32:21 10° NNW 19:36:54 73° W 19:41:25 10° S
SJ-6B 2.8 19:33:02 10° SSE 19:36:58 65° ENE 19:41:00 10° N
Resurs 1-3 4.5 19:35:06 10° SE 19:38:52 29° ENE 19:42:40 10° N
In-Cosmos 22 4.4 19:33:46 10° N 19:39:25 52° ENE 19:44:59 10° SSE
Helios 1A 3.7 19:36:30 10° SE 19:40:16 33° ENE 19:44:04 10° N
FREGAT/IRIS 2.8 19:37:27 10° SSE 19:40:27 51° ENE 19:43:27 10° N
Meteor 1-29 3.9 19:38:05 10° NE 19:41:06 26° E 19:44:05 10° SSE
Resurs 01 Rocket 2.1 19:37:50 10° SE 19:42:00 40° ENE 19:46:11 10° N
Cosmos 1674 4.3 19:42:40 10° NNE 19:45:20 17° ENE 19:46:24 16° E
NOSS 3-2 (A) 3.9 19:39:39 10° SW 19:45:39 68° NW 19:52:14 10° NNE
Cosmos 1743 Rocket 4.5 19:42:42 10° NNE 19:46:33 28° ENE 19:50:20 10° SE
Cosmos 1758 3.4 19:45:34 10° S 19:49:33 56° E 19:53:35 10° NNE
ASTRO E2 4.2 19:46:31 10° WSW 19:49:57 27° S 19:52:46 13° SE
Cosmos 1452 Rocket 3.5 19:46:20 10° NNW 19:51:34 65° ENE 19:56:46 10° SSE
Cosmos 1484 Rocket 4.3 19:48:13 10° SSW 19:51:48 39° W 19:55:28 10° NNW
ATLAS 5 CENTAUR R/B 2.0 19:50:37 10° SW 19:55:20 74° WNW 20:00:30 10° NNE
Abrixas 2.5 19:53:09 10° SW 19:56:06 59° SE 19:57:41 24° ENE
Timation 1 Rocket 4.5 19:50:10 10° NNW 19:56:09 79° WSW 20:02:06 10° SSE
Nadezhda 4 Rocket 4.2 19:54:35 10° N 20:00:40 49° ENE 20:06:37 10° SSE
Cosmos 1346 3.5 19:59:00 10° N 20:01:49 36° ENE 20:02:37 30° ESE
Meteor 2-12 Rocket 4.4 19:57:29 10° S 20:03:35 70° E 20:09:42 10° NNE
Cosmos 468 4.4 20:02:20 10° SSW 20:07:35 78° ESE 20:12:49 10° NNE
Meteor 1-21 Rocket 4.1 20:02:46 10° N 20:08:19 69° E 20:13:49 10° SSE
Cosmos 1092 Rocket 4.4 20:02:46 10° N 20:08:35 40° ENE 20:13:46 13° SE
GP-B 4.4 20:05:27 10° NNE 20:08:19 22° ENE 20:08:19 22° ENE
ASTEX 1 3.6 20:07:36 10° NNE 20:12:18 43° E 20:16:55 10° SSE
Cosmos 1420 Rocket 4.1 20:07:30 10° N 20:12:43 56° ENE 20:16:34 18° SE
Atlas Centaur 2 4.5 20:07:05 10° WSW 20:14:03 28° SSW 20:20:41 10° SSE
SL-16 R/B 3.9 20:11:19 10° SW 20:16:27 34° WNW 20:21:38 10° N
CENTAUR R/B 2.7 20:11:32 10° S 20:17:08 44° ESE 20:23:20 10° NE
Helios 1B rocket 2.5 20:14:19 10° N 20:18:26 77° WNW 20:22:32 10° SSW
Cosmos 1544 3.0 20:15:03 10° S 20:18:47 87° E 20:22:33 10° N
METEOR-M 4.4 20:14:35 10° S 20:19:55 71° WSW 20:25:16 10° NNW
Cosmos 1766 Rocket 4.3 20:18:11 10° NNW 20:22:27 53° W 20:26:39 10° S
Cosmos 1634 Rocket 4.3 20:16:54 10° SSE 20:22:42 42° E 20:28:30 10° NNE
CZ-2D R/B 3.4 20:24:44 44° ESE 20:25:21 49° ENE 20:29:08 10° N
Spot 2 Rocket 3.8 20:21:57 10° S 20:26:57 66° WSW 20:31:59 10° NNW
OAO 3 Rocket 3.6 20:23:58 10° W 20:28:35 51° S 20:30:04 37° SE
Cosmos 1048 Rocket 3.9 20:25:08 10° SSW 20:30:26 82° ESE 20:35:43 10° NNE
Cosmos 1269 Rocket 4.0 20:25:42 10° SSW 20:30:59 84° WNW 20:36:18 10° NNE
FENGYUN 3A 3.5 20:28:51 14° SSE 20:33:34 78° ENE 20:38:58 10° N
Cosmos-2242 4.0 20:29:57 10° SSW 20:34:11 48° W 20:38:27 10° N
Envisat 4.5 20:39:20 21° NE 20:39:20 21° NE 20:42:01 10° NNE
H-2A R/B 2.6 20:39:09 68° ESE 20:39:28 75° ENE 20:43:22 10° N
Gbstr 26 Del rocket 3.2 20:37:26 10° SW 20:41:49 68° SE 20:42:57 50° ENE
Cosmos 1953 4.3 20:39:21 10° SW 20:42:54 30° WNW 20:46:27 10° NNW
Cosmos 2151 4.1 20:40:10 10° N 20:42:41 30° NNE 20:42:41 30° NNE
Cosmos 1174 3.9 20:39:25 10° SSW 20:44:15 66° SE 20:44:15 66° SE
ISS -2.7 20:41:25 10° WSW 20:44:07 55° W 20:44:07 55° W
ALOS 2.4 20:42:16 19° S 20:45:33 75° WSW 20:50:15 10° NNW
BREEZE-M DEB (TANK) 3.9 20:38:42 10° WNW 20:50:26 48° N 20:52:04 36° NE
Cosmos 1842 Rocket 3.9 20:49:36 10° SSW 20:53:53 63° W 20:58:13 10° N
Cosmos 158 Rocket 3.6 20:50:43 10° SSW 20:55:36 83° ESE 21:00:30 10° NNE
Cosmos 1500 Rocket 3.8 20:51:13 10° NNW 20:55:39 69° W 20:57:01 42° SSW
USA 215 3.7 20:50:32 10° NE 20:56:57 60° NW 21:03:20 10° WSW
Cosmos 1943 3.0 20:52:52 10° SSW 20:58:30 88° ESE 21:04:10 10° NNE
Cosmos 1943 Rocket 3.3 20:54:16 10° N 20:58:07 28° NE 20:58:07 28° NE
Cosmos 2369 Rocket 2.1 20:53:35 10° NNW 20:59:15 69° ENE 20:59:46 65° E
GPS 2-04 Rocket1 4.2 20:56:26 10° WSW 20:58:12 26° SW 20:58:12 26° SW
Cosmos 1470 3.9 21:01:14 10° SSW 21:04:56 43° W 21:08:40 10° N
Cosmos 2263 4.4 21:00:39 10° NNW 21:05:59 56° NE 21:05:59 56° NE
Cosmos 1733 4.3 21:08:47 44° NW 21:08:47 44° NW 21:11:57 10° N
Cosmos 1627 Rocket 4.3 21:03:54 10° N 21:10:08 80° E 21:11:13 63° SSE
SL-8 R/B 4.3 21:07:17 10° W 21:11:56 50° NNW 21:12:17 49° N
SeaSat 1 3.2 21:15:13 41° SSW 21:15:13 41° SSW 21:18:22 10° SSW
ERS-1 Rocket 3.9 21:15:22 37° NNE 21:15:22 37° NNE 21:18:33 10° N
Resurs 01 Rocket 4.4 21:15:43 10° SW 21:18:37 17° W 21:21:32 10° NW
Cosmos 839 Rocket 4.3 21:36:51 10° NW 21:44:10 67° WSW 21:44:15 67° WSW
Cosmos 2279 Rocket 4.4 21:46:27 58° NNW 21:46:27 58° NNW 21:51:30 10° N
CENTAUR R/B 3.9 22:02:18 10° WSW 22:07:53 35° NW 22:14:07 10° NNE
Cosmos 1943 Rocket 4.5 22:37:52 10° NW 22:39:39 19° NW 22:39:39 19° NW
